FW3872 Orange Beach AL US current weather conditions

sailwx.info

Wind from 311

Air temperature 18.3° C
Dewpoint 12.5° C

Last reported at 2020-Sep-30 04:46 UTC.
Time now 2020-Sep-30 05:22 UTC

Location: N 30°17' W 087°35'.
View on Google Maps.

See reports from other nearby stations

  
Tides and Currents Weather Stations Pressure Air Temp Water Temp Dewpoint Dewpoint Depression Visibility Wind Speed Wind Dir Waves Ship Positions
date/time (UTC)wind fromknots sea level pressurealtimeterstation pressurevisibilityair tempwater tempwave heightnotes
2020-Sep-30 05:00 261 18.3
2020-Sep-30 04:46 311 18.3
2020-Sep-30 04:31 338 17.8
2020-Sep-30 04:16 279 17.8
2020-Sep-30 04:00 261 17.8
2020-Sep-30 03:45 286 18.3
2020-Sep-30 03:33 263 18.3
2020-Sep-30 03:17 263 18.3
2020-Sep-30 03:01 263 18.9
2020-Sep-30 02:45 304 18.9
2020-Sep-30 02:31 261 0 gusting 4 19.4
2020-Sep-30 02:16 264 19.4
2020-Sep-30 02:01 263 0 gusting 6 19.4
2020-Sep-30 01:46 290 20.0
2020-Sep-30 01:31 261 20.0
2020-Sep-30 01:16 263 2 gusting 6 20.6
2020-Sep-30 01:01 263 20.6
2020-Sep-30 00:45 292 21.1
2020-Sep-30 00:31 263 21.1
2020-Sep-30 00:16 264 21.1
2020-Sep-30 00:02 262 21.7
2020-Sep-29 23:45 324 21.7
2020-Sep-29 23:31 263 2 gusting 6 22.2
2020-Sep-29 23:16 260 3 gusting 6 22.8
2020-Sep-29 23:01 263 4 gusting 6 22.8
2020-Sep-29 22:46 320 22.8
2020-Sep-29 22:32 263 1 gusting 8 22.8
2020-Sep-29 22:16 279 22.8
2020-Sep-29 22:01 332 23.3
2020-Sep-29 21:46 042 23.3
2020-Sep-29 21:31 271 5 gusting 13 22.2
2020-Sep-29 21:15 260 7 gusting 13 22.2
2020-Sep-29 21:01 360 22.8
2020-Sep-29 20:45 298 22.8
2020-Sep-29 20:31 273 6 gusting 12 21.7
2020-Sep-29 20:16 269 7 gusting 14 21.1
2020-Sep-29 20:01 260 8 gusting 14 21.1
2020-Sep-29 19:46 344 21.7
2020-Sep-29 19:31 342 21.7
2020-Sep-29 19:15 270 8 gusting 15 20.6
2020-Sep-29 19:01 270 9 gusting 16 20.6
2020-Sep-29 18:45 308 20.6
2020-Sep-29 18:31 269 9 gusting 16 20.0
2020-Sep-29 18:16 325 20.6
2020-Sep-29 18:01 254 6 gusting 17 20.0
2020-Sep-29 17:31 275 7 gusting 13 19.4
2020-Sep-29 17:16 328 19.4
2020-Sep-29 17:01 271 8 gusting 14 18.3
2020-Sep-29 16:31 304 18.9
2020-Sep-29 16:16 265 18.9
2020-Sep-29 16:01 333 19.4
2020-Sep-29 15:46 344 20.0
2020-Sep-29 15:31 292 20.0
2020-Sep-29 15:15 263 6 gusting 12 19.4
2020-Sep-29 15:00 278 19.4
2020-Sep-29 14:45 293 19.4
2020-Sep-29 14:31 331 19.4
2020-Sep-29 14:15 265 9 gusting 15 18.9
2020-Sep-29 14:00 340 18.9
2020-Sep-29 13:45 015 18.9
2020-Sep-29 13:32 325 18.9
2020-Sep-29 13:17 325 18.9
2020-Sep-29 13:01 326 18.3
2020-Sep-29 12:46 016 18.3
2020-Sep-29 12:31 302 18.3
2020-Sep-29 12:17 334 18.3
2020-Sep-29 12:00 263 6 gusting 13 17.8
2020-Sep-29 11:46 319 17.8
2020-Sep-29 11:32 025 6 gusting 16 17.8
2020-Sep-29 11:17 016 8 gusting 14 17.8
2020-Sep-29 11:15 309 17.8
2020-Sep-29 11:02 043 7 gusting 13 17.8
2020-Sep-29 10:47 340 17.8
2020-Sep-29 10:30 355 7 gusting 15 17.8
2020-Sep-29 10:15 355 17.8
2020-Sep-29 10:00 336 18.3
2020-Sep-29 09:46 315 18.3
2020-Sep-29 09:31 034 7 gusting 17 17.8
2020-Sep-29 09:16 012 5 gusting 14 18.3
2020-Sep-29 09:01 351 6 gusting 16 17.8
2020-Sep-29 08:45 317 18.3
2020-Sep-29 08:31 027 6 gusting 14 18.3
2020-Sep-29 08:17 047 6 gusting 13 18.3
2020-Sep-29 08:02 055 6 gusting 15 18.3
2020-Sep-29 07:46 313 18.9
2020-Sep-29 07:31 017 4 gusting 15 18.3
2020-Sep-29 07:17 013 6 gusting 17 18.3
2020-Sep-29 07:02 016 6 gusting 15 18.3
2020-Sep-29 06:45 341 18.9
2020-Sep-29 06:31 348 5 gusting 12 18.9
2020-Sep-29 06:30 015 18.9
2020-Sep-29 06:16 342 19.4
2020-Sep-29 06:01 310 20.0
2020-Sep-29 05:31 360 3 gusting 10 20.0
2020-Sep-29 05:16 360 7 gusting 14 20.6
2020-Sep-29 05:01 323 21.1
2020-Sep-29 04:46 350 21.7
2020-Sep-29 04:31 348 21.7
2020-Sep-29 04:16 272 22.2
2020-Sep-29 04:00 312 22.8
2020-Sep-29 03:45 288 22.8
2020-Sep-29 03:31 344 22.8
2020-Sep-29 03:16 336 22.8
2020-Sep-29 03:00 360 22.2
2020-Sep-29 02:46 325 22.2
2020-Sep-29 02:31 011 1 gusting 2 21.7
2020-Sep-29 02:15 013 0 gusting 1 21.1
2020-Sep-29 02:01 288 22.2
2020-Sep-29 01:46 287 21.7
2020-Sep-29 01:31 306 21.7
2020-Sep-29 01:16 279 22.2
2020-Sep-29 01:00 283 22.2
2020-Sep-29 00:45 284 22.2
2020-Sep-29 00:30 293 22.2
2020-Sep-29 00:15 275 22.2
2020-Sep-29 00:02 268 1 gusting 5 21.7
2020-Sep-28 23:46 278 22.8
2020-Sep-28 23:31 281 22.8
2020-Sep-28 23:17 300 1 gusting 13 22.8
2020-Sep-28 23:01 313 9 gusting 23 26.1
2020-Sep-28 22:45 228 27.8
2020-Sep-28 22:31 213 6 gusting 10 27.8
2020-Sep-28 22:15 263 28.3
2020-Sep-28 22:01 233 28.3
2020-Sep-28 21:46 267 28.9
2020-Sep-28 21:32 273 3 gusting 11 28.9
2020-Sep-28 21:17 275 5 gusting 12 28.9
2020-Sep-28 21:01 210 7 gusting 13 29.4
2020-Sep-28 20:46 182 28.9
2020-Sep-28 20:31 249 7 gusting 13 29.4
2020-Sep-28 20:16 234 6 gusting 13 29.4
2020-Sep-28 20:02 231 8 gusting 13 28.9
2020-Sep-28 19:45 232 29.4
2020-Sep-28 19:31 204 6 gusting 12 28.9
2020-Sep-28 19:16 178 4 gusting 13 28.9
2020-Sep-28 19:01 186 6 gusting 13 28.9
2020-Sep-28 18:45 202 29.4
2020-Sep-28 18:32 207 6 gusting 10 28.9
2020-Sep-28 18:16 221 6 gusting 10 28.9
2020-Sep-28 18:01 248 5 gusting 12 28.9
2020-Sep-28 17:45 183 29.4
2020-Sep-28 17:31 225 5 gusting 12 29.4
2020-Sep-28 17:16 205 4 gusting 10 29.4
2020-Sep-28 17:00 229 5 gusting 11 28.9
2020-Sep-28 16:45 210 30.0
2020-Sep-28 16:30 212 3 gusting 10 28.9
2020-Sep-28 16:15 266 6 gusting 13 28.9
2020-Sep-28 16:00 221 7 gusting 10 28.9
2020-Sep-28 15:46 233 6 gusting 12 28.9
2020-Sep-28 15:32 190 29.4
2020-Sep-28 15:17 264 29.4
2020-Sep-28 15:01 198 28.9
2020-Sep-28 14:47 199 28.3
2020-Sep-28 14:32 246 28.3
2020-Sep-28 14:16 185 27.8
2020-Sep-28 14:02 236 27.8
2020-Sep-28 14:00 240 4 gusting 8 27.8
2020-Sep-28 13:48 269 3 gusting 9 27.2
2020-Sep-28 13:34 200 5 gusting 8 27.2
2020-Sep-28 13:15 190 27.2
2020-Sep-28 13:01 232 3 gusting 7 26.7
2020-Sep-28 12:47 275 3 gusting 8 26.7
2020-Sep-28 12:31 251 4 gusting 11 26.7
2020-Sep-28 12:16 233 25.6
2020-Sep-28 12:02 243 5 gusting 8 26.1
2020-Sep-28 11:46 205 25.6
2020-Sep-28 11:31 243 4 gusting 9 26.1
2020-Sep-28 11:15 202 25.6
2020-Sep-28 11:03 221 4 gusting 9 26.1
2020-Sep-28 10:46 225 2 gusting 7 26.1
2020-Sep-28 10:31 228 2 gusting 7 26.1
2020-Sep-28 10:15 211 25.6
2020-Sep-28 10:01 229 4 gusting 9 26.1
2020-Sep-28 09:46 214 5 gusting 10 26.1
2020-Sep-28 09:32 259 4 gusting 8 26.1
2020-Sep-28 09:16 205 25.6
2020-Sep-28 09:02 224 4 gusting 9 26.1
2020-Sep-28 08:46 238 6 gusting 11 26.1
2020-Sep-28 08:31 215 4 gusting 8 26.1
2020-Sep-28 08:15 172 25.6
2020-Sep-28 08:01 213 2 gusting 6 25.6
2020-Sep-28 07:46 223 2 gusting 6 25.6
2020-Sep-28 07:31 200 2 gusting 6 25.6
2020-Sep-28 07:16 208 25.6
2020-Sep-28 07:01 196 4 gusting 8 26.1
2020-Sep-28 06:45 142 25.6
2020-Sep-28 06:30 188 3 gusting 8 26.1
2020-Sep-28 06:15 159 25.6
2020-Sep-28 06:00 205 3 gusting 7 26.1
2020-Sep-28 05:46 194 3 gusting 8 26.1
2020-Sep-28 05:45 194 25.6
2020-Sep-28 05:31 205 4 gusting 8 26.1
2020-Sep-28 05:30 183 25.6
2020-Sep-28 05:15 158 25.6
2020-Sep-28 05:03 115 25.6